User: anonymous   Login
Location: Chevoux
(46.3801°N, 4.9476°E)
Time: 20:29:30
(UTC+00:00)
Language:

Cosmos 1825 Rocket - Orbit

View from above orbital plane
View from above orbital plane
View from above satellite
View from above satellite

Ground track
Ground track

The orbit data is extracted from the following two-line orbital elements,

1 17567U 87024B   21110.60120154  .00000115  00000-0  10888-4 0  9997
2 17567  82.5279 325.3644 0020148  39.6763 320.5921 14.83800866823488
Epoch (UTC): 20 April 2021 14:25:43
Eccentricity: 0.0020148
inclination: 82.5279°
perigee height: 603 km
apogee height: 631 km
right ascension of ascending node: 325.3644°
argument of perigee: 39.6763°
revolutions per day: 14.83800866
mean anomaly at epoch: 320.5921°
orbit number at epoch: 82348

The dashed part of the orbit path shows where the satellite is in the earth's shadow,  

DLR